Wind_Speed
13 12 11 11 10 10 9 9 9 9 9 8 7 7 8 8 9 9 8 8 7 7 7 7 6 6 6 5 6 6 4 4 4 3 2 1 1 1 2 2 2 2
13 13 12 11 11 12 11 9 8 8 9 9 8 7 8 9 10 10 10 9 8 7 7 7 6 7 6 5 6 6 5 5 4 3 4 3 2 2 3 3 3 3
14 13 13 11 10 11 10 9 9 9 8 8 8 8 8 9 9 10 10 9 8 8 8 7 6 7 7 7 7 6 5 5 4 4 6 5 3 3 3 3 3 4
15 13 12 11 10 10 10 9 9 9 8 8 8 8 8 8 8 9 10 10 10 9 8 7 7 7 7 7 7 6 6 6 6 6 7 6 4 4 4 4 4 4
15 14 13 12 11 11 10 10 9 9 9 8 8 8 9 10 9 8 9 10 10 10 8 8 8 7 7 8 7 7 7 6 7 7 8 6 5 5 4 5 6 6
15 15 15 14 13 12 11 11 10 10 9 9 9 8 9 10 10 8 8 9 9 9 8 8 8 8 8 8 8 8 8 7 7 9 9 7 7 6 5 6 7 7
16 16 16 15 14 14 13 12 12 11 10 10 10 10 9 9 9 9 9 9 9 9 9 8 9 9 9 9 9 9 9 9 9 10 9 8 8 8 7 7 9 9
17 17 17 16 15 15 14 13 13 13 12 12 11 11 10 9 9 9 9 10 9 9 9 9 10 11 9 9 9 9 9 9 9 9 8 8 8 8 8 8 9 9
17 17 17 17 16 15 15 15 14 14 14 14 12 11 11 10 10 10 10 11 10 10 11 11 12 12 9 9 10 10 9 8 8 8 8 8 8 8 8 8 8 9
18 18 17 17 17 16 16 16 15 15 15 14 13 12 11 11 11 10 11 11 10 11 12 12 12 11 9 10 11 10 10 9 9 10 10 9 9 8 8 8 9 9
18 18 18 18 17 17 17 16 15 15 15 15 14 13 12 12 11 11 12 12 11 11 11 10 11 11 10 10 10 10 10 9 9 10 10 9 9 9 9 9 10 10
19 18 18 18 18 17 17 16 16 15 14 15 14 13 12 12 11 12 12 11 11 11 11 11 11 11 11 11 11 11 10 10 10 10 9 9 9 9 10 10 10 10
20 19 19 18 18 18 17 16 16 16 15 14 13 13 12 12 12 12 11 11 11 11 11 11 11 11 12 12 11 12 11 10 11 10 10 10 10 9 10 10 11 11
20 20 19 18 18 19 18 17 16 16 16 15 13 13 13 13 13 12 12 12 12 12 11 12 12 12 12 13 12 12 12 12 12 12 11 10 10 10 10 11 11 11
21 21 20 19 18 18 19 18 16 15 15 15 15 14 14 14 14 13 12 12 13 13 12 12 12 12 13 13 12 11 12 12 12 12 11 11 10 11 11 11 12 12
22 22 22 22 20 19 20 20 18 16 15 15 16 16 15 14 14 14 14 13 13 14 13 12 12 14 16 15 13 12 12 12 13 13 12 12 11 12 12 12 12 12
24 23 23 24 22 21 21 21 19 18 17 17 17 17 17 16 15 15 15 14 13 13 13 12 15 17 17 15 14 15 14 13 13 13 12 12 12 12 12 12 12 12
25 25 25 24 23 22 22 21 21 21 21 20 18 17 18 17 16 16 16 15 14 14 13 14 17 18 17 16 17 17 17 16 16 14 13 13 13 13 13 13 13 12
25 26 26 23 22 23 23 21 22 22 22 22 20 19 18 17 16 16 16 16 16 14 13 16 18 18 18 18 19 20 19 19 19 18 15 14 13 13 14 14 13 13
23 25 24 21 21 22 22 22 23 22 22 22 21 21 20 19 17 16 16 17 16 14 15 19 19 18 19 20 20 21 20 19 19 19 16 15 15 14 15 15 13 13
21 21 19 18 18 18 19 20 20 21 21 21 20 21 21 20 19 17 15 16 15 14 15 20 21 19 20 21 20 19 18 17 18 18 16 15 15 14 14 15 14 14
20 19 18 19 19 18 18 18 19 20 21 20 19 20 20 21 20 18 16 16 14 15 17 21 22 21 20 20 18 16 15 16 16 17 16 16 15 14 14 13 13 14
17 18 19 20 19 19 19 20 20 21 22 21 21 20 21 23 23 20 19 18 17 18 21 21 20 19 18 17 17 16 16 16 16 16 16 16 16 17 17 14 12 13
16 18 19 18 17 18 18 19 20 21 22 22 22 22 23 26 24 20 20 20 19 20 22 22 20 18 17 17 17 17 17 17 16 16 16 15 17 18 18 16 15 14
18 20 21 19 17 16 16 16 17 18 20 22 23 24 24 24 22 21 23 24 22 21 22 22 19 17 17 17 18 18 17 16 16 15 14 14 17 18 17 16 15 15
17 18 19 19 19 17 16 16 16 17 21 23 23 24 24 21 18 19 22 23 22 22 21 18 15 14 15 16 16 16 15 14 13 12 11 11 11 12 13 12 11 13
Wind_Direction
189 188 186 184 178 177 180 176 177 182 180 183 189 187 186 189 190 188 190 205 209 205 211 215 214 209 204 211 196 184 200 186 178 253 265 187 209 274 286 279 287 291
186 188 186 184 185 186 183 176 180 186 186 183 181 184 190 196 198 193 193 203 204 205 212 211 213 215 204 206 209 199 210 207 186 232 270 252 221 242 271 279 286 287
187 190 189 185 189 191 185 185 187 185 190 189 184 188 192 197 202 199 200 200 192 199 214 210 210 219 210 208 212 205 218 227 201 214 249 252 244 253 267 276 278 279
188 190 188 185 188 189 186 192 195 187 188 192 193 193 186 188 202 204 204 201 192 196 208 208 209 215 215 215 215 210 222 234 222 219 236 247 251 252 257 267 267 263
192 190 187 186 188 189 189 193 196 192 192 192 193 196 192 192 198 201 208 208 200 200 205 209 211 211 216 218 214 214 222 235 245 244 242 244 252 259 263 263 259 256
194 193 190 189 190 191 192 195 197 195 196 195 191 194 203 205 201 196 206 210 204 204 206 211 213 209 215 223 217 218 221 222 239 254 253 247 244 244 248 255 257 258
195 196 193 192 193 193 192 194 198 196 195 197 193 194 202 209 207 199 203 207 201 206 207 210 218 211 212 225 224 224 226 219 225 242 250 247 248 244 239 248 258 261
196 198 196 195 195 197 195 195 198 197 196 196 197 199 197 200 206 202 205 205 199 208 207 205 224 223 213 222 229 229 230 226 231 247 250 243 248 252 248 247 255 262
198 199 200 199 198 199 199 198 199 198 197 196 196 201 198 197 202 200 208 209 199 210 213 207 223 229 215 219 231 233 231 225 227 245 254 251 250 254 256 253 255 262
200 199 201 202 202 204 204 203 203 201 200 198 196 198 198 199 198 196 213 220 206 212 222 218 223 228 219 221 231 234 234 227 222 226 236 245 247 247 250 251 252 257
203 201 203 205 204 206 208 208 208 206 204 203 199 198 200 202 199 197 212 224 213 212 225 226 226 228 223 222 229 235 237 234 234 234 236 240 244 245 245 246 249 252
204 204 205 207 206 209 210 210 211 211 209 207 200 198 202 205 204 203 210 219 214 209 220 227 227 227 226 223 223 231 236 236 238 241 242 243 244 246 249 249 249 251
203 205 207 208 208 209 210 211 212 211 212 212 203 201 206 207 207 207 210 217 218 213 216 226 227 224 229 231 226 227 230 232 236 241 241 244 246 244 246 248 248 250
203 204 205 207 209 210 209 211 213 211 213 214 209 208 211 211 210 211 211 216 222 219 214 224 232 230 233 239 235 230 230 230 234 237 239 242 246 245 246 249 249 248
206 205 205 204 206 209 209 209 211 211 211 211 210 211 213 215 215 214 215 217 221 222 217 220 231 233 233 238 238 235 237 238 237 239 241 242 244 246 249 249 250 251
211 209 210 207 204 206 208 208 209 209 210 211 211 212 213 215 216 214 217 219 221 225 224 220 227 233 235 237 237 239 241 239 238 242 244 241 241 245 250 252 254 257
213 210 213 213 210 209 210 209 206 206 210 211 210 211 212 213 214 214 216 219 221 225 227 224 228 235 239 240 239 245 249 242 238 247 252 249 249 250 253 257 259 260
213 210 213 214 213 214 214 212 208 206 209 209 205 206 211 212 213 216 215 216 221 226 230 233 235 236 239 240 241 246 250 246 241 248 258 262 261 258 258 259 259 261
217 215 216 215 212 212 211 212 215 214 215 216 213 212 215 214 214 218 220 220 221 223 229 235 237 238 238 239 242 247 251 250 247 247 253 261 263 262 262 260 257 260
218 214 213 212 212 212 209 210 216 218 219 222 223 222 223 220 216 215 219 222 219 216 226 233 233 235 238 239 243 250 252 253 251 250 252 258 260 262 264 263 261 261
221 216 208 205 211 217 218 216 217 218 220 222 224 225 226 225 222 215 214 221 217 208 220 232 231 230 236 240 244 250 253 251 251 251 252 256 261 266 262 258 256 256
226 227 221 216 218 224 228 227 225 225 225 226 228 229 226 224 222 215 209 209 202 198 213 229 232 232 236 241 244 248 249 248 249 250 249 248 253 257 250 242 242 247
217 221 225 226 225 227 229 229 229 228 228 229 231 233 232 227 219 209 204 199 190 194 211 225 231 233 236 240 244 247 246 245 246 247 246 243 242 246 249 251 256 256
210 211 218 220 219 222 225 225 226 228 228 229 231 232 234 233 223 207 201 202 197 200 214 226 233 237 241 243 245 248 248 247 246 247 248 247 247 249 252 257 262 260
216 215 219 219 216 216 219 220 223 226 227 227 227 226 226 229 226 211 201 203 206 211 221 229 233 237 244 247 250 252 253 251 248 248 249 252 254 256 253 250 255 260
210 212 215 216 213 208 203 204 208 214 219 220 221 220 219 219 218 210 202 202 207 213 222 229 233 237 244 248 253 255 253 248 242 239 237 236 243 258 258 252 259 267
Height
1587 1589 1590 1591 1592 1594 1594 1595 1596 1597 1598 1599 1600 1601 1601 1602 1603 1604 1604 1605 1605 1606 1606 1607 1607 1608 1609 1609 1610 1610 1610 1611 1612 1612 1612 1612 1613 1614 1614 1614 1614 1614
1587 1588 1589 1590 1591 1592 1593 1595 1596 1597 1598 1598 1600 1600 1601 1601 1602 1603 1603 1604 1605 1605 1606 1606 1607 1608 1608 1609 1609 1610 1610 1611 1611 1612 1612 1612 1612 1613 1614 1614 1614 1614
1586 1587 1589 1590 1591 1592 1593 1594 1595 1596 1597 1598 1599 1600 1600 1601 1601 1602 1603 1603 1604 1605 1605 1606 1607 1607 1608 1609 1609 1609 1610 1610 1611 1612 1612 1612 1612 1613 1613 1614 1614 1614
1585 1587 1588 1590 1591 1592 1593 1594 1594 1595 1597 1598 1598 1599 1600 1601 1601 1601 1602 1603 1604 1605 1605 1606 1606 1607 1607 1608 1609 1609 1610 1610 1610 1611 1611 1611 1612 1612 1613 1613 1614 1614
1584 1586 1587 1589 1590 1591 1592 1593 1594 1595 1596 1597 1598 1598 1599 1599 1600 1601 1602 1602 1603 1604 1605 1605 1606 1606 1607 1607 1608 1609 1609 1610 1610 1610 1610 1611 1611 1612 1612 1613 1612 1613
1583 1585 1586 1588 1589 1590 1591 1593 1594 1594 1595 1596 1597 1598 1598 1598 1599 1601 1601 1602 1603 1604 1604 1605 1605 1606 1606 1607 1607 1608 1608 1609 1610 1609 1609 1610 1610 1611 1612 1612 1611 1611
1582 1583 1585 1586 1588 1589 1590 1591 1592 1593 1594 1595 1596 1597 1598 1598 1599 1600 1601 1601 1603 1604 1604 1605 1605 1605 1606 1606 1606 1607 1607 1608 1608 1608 1609 1609 1609 1610 1610 1611 1610 1610
1582 1582 1584 1585 1586 1588 1589 1590 1591 1591 1593 1594 1595 1596 1596 1598 1598 1599 1600 1601 1602 1603 1603 1604 1604 1604 1605 1606 1606 1606 1606 1607 1607 1608 1608 1608 1608 1609 1609 1609 1609 1609
1581 1581 1583 1584 1585 1587 1587 1588 1589 1590 1591 1592 1593 1595 1595 1596 1598 1599 1599 1600 1601 1602 1602 1603 1603 1603 1604 1605 1605 1605 1606 1606 1607 1607 1607 1607 1608 1608 1608 1608 1609 1608
1579 1580 1582 1583 1584 1586 1586 1587 1588 1588 1590 1591 1592 1594 1594 1595 1596 1598 1598 1598 1600 1600 1600 1601 1602 1602 1603 1604 1604 1605 1605 1605 1606 1606 1606 1606 1607 1607 1607 1608 1608 1608
1578 1579 1581 1582 1583 1584 1585 1586 1587 1587 1588 1590 1591 1592 1593 1594 1595 1597 1597 1597 1598 1599 1599 1600 1601 1601 1602 1603 1603 1604 1604 1604 1604 1605 1605 1605 1605 1606 1606 1606 1606 1606
1576 1578 1579 1580 1582 1583 1584 1585 1586 1586 1587 1589 1590 1591 1592 1593 1594 1596 1596 1596 1597 1598 1599 1599 1599 1600 1601 1602 1602 1603 1603 1604 1604 1604 1604 1604 1604 1605 1605 1605 1605 1605
1574 1576 1578 1579 1580 1582 1583 1584 1585 1586 1587 1588 1589 1590 1592 1593 1593 1594 1595 1596 1596 1597 1597 1597 1597 1599 1599 1600 1601 1601 1602 1603 1603 1604 1604 1604 1604 1604 1605 1605 1605 1605
1572 1574 1576 1578 1579 1580 1581 1583 1584 1585 1586 1587 1588 1589 1590 1592 1592 1593 1594 1594 1595 1595 1596 1596 1596 1597 1598 1598 1599 1600 1601 1602 1602 1603 1603 1604 1604 1604 1604 1604 1604 1604
1571 1572 1573 1575 1577 1578 1579 1580 1582 1583 1584 1586 1587 1588 1589 1590 1591 1591 1592 1593 1593 1593 1594 1595 1595 1596 1596 1597 1597 1598 1599 1600 1600 1601 1602 1602 1603 1603 1603 1603 1603 1603
1568 1570 1571 1573 1574 1575 1576 1578 1579 1581 1582 1584 1585 1586 1587 1588 1589 1590 1590 1591 1592 1591 1592 1593 1594 1594 1594 1596 1596 1597 1598 1599 1599 1600 1601 1601 1601 1601 1602 1602 1602 1602
1566 1567 1568 1570 1571 1573 1574 1575 1577 1578 1580 1581 1582 1583 1585 1585 1586 1587 1588 1589 1590 1590 1591 1592 1592 1591 1592 1594 1595 1596 1597 1597 1598 1599 1600 1600 1600 1600 1600 1601 1601 1601
1563 1564 1565 1567 1568 1570 1571 1572 1574 1575 1577 1578 1579 1581 1582 1583 1584 1585 1586 1587 1588 1589 1590 1590 1589 1589 1591 1592 1593 1594 1595 1596 1597 1598 1599 1599 1599 1599 1599 1599 1599 1600
1561 1562 1563 1564 1565 1566 1566 1569 1571 1573 1575 1576 1578 1579 1580 1581 1582 1583 1583 1585 1586 1588 1588 1587 1586 1588 1589 1590 1591 1592 1593 1594 1595 1596 1597 1598 1598 1598 1598 1598 1598 1598
1558 1558 1560 1562 1562 1562 1563 1566 1569 1571 1573 1575 1576 1577 1578 1578 1579 1580 1581 1582 1583 1585 1585 1584 1584 1586 1587 1588 1589 1590 1591 1592 1593 1594 1595 1596 1597 1597 1597 1597 1596 1596
1556 1556 1558 1560 1561 1562 1563 1565 1568 1570 1572 1573 1574 1575 1576 1576 1577 1578 1579 1579 1581 1582 1582 1581 1582 1584 1585 1586 1587 1588 1589 1590 1591 1592 1594 1595 1596 1596 1595 1595 1594 1594
1556 1557 1559 1560 1562 1563 1564 1566 1567 1569 1570 1571 1572 1573 1573 1573 1574 1575 1575 1577 1578 1579 1577 1577 1580 1582 1583 1584 1585 1586 1587 1588 1589 1590 1591 1593 1594 1593 1591 1590 1589 1590
1554 1556 1558 1559 1561 1563 1564 1565 1566 1566 1568 1569 1569 1570 1570 1570 1570 1571 1572 1574 1574 1574 1573 1575 1578 1579 1581 1582 1583 1584 1585 1586 1587 1588 1589 1590 1590 1589 1588 1588 1589 1589
1552 1554 1555 1556 1558 1560 1561 1562 1563 1564 1565 1566 1566 1567 1567 1566 1567 1569 1572 1573 1572 1572 1572 1573 1576 1577 1578 1580 1581 1582 1583 1584 1585 1586 1587 1588 1587 1587 1587 1588 1587 1588
1550 1552 1552 1553 1555 1557 1558 1559 1561 1563 1564 1564 1563 1563 1564 1564 1565 1567 1570 1570 1570 1572 1572 1573 1574 1575 1576 1577 1578 1580 1581 1582 1583 1584 1585 1586 1585 1584 1585 1586 1586 1586
1548 1549 1550 1551 1552 1554 1555 1557 1559 1561 1561 1561 1561 1562 1563 1563 1563 1565 1568 1568 1569 1571 1572 1572 1573 1573 1574 1575 1576 1577 1579 1580 1581 1582 1583 1583 1582 1582 1584 1585 1586 1585